PDT,Max TemperatureF,Mean TemperatureF,Min TemperatureF,Max Dew PointF,MeanDew PointF,Min DewpointF,Max Humidity, Mean Humidity, Min Humidity, Max Sea Level PressureIn, Mean Sea Level PressureIn, Min Sea Level PressureIn, Max VisibilityMiles, Mean VisibilityMiles, Min VisibilityMiles, Max Wind SpeedMPH, Mean Wind SpeedMPH, Max Gust SpeedMPH,PrecipitationIn, CloudCover, Events, WindDirDegrees
2012-8-1,75,65,55,55,53,50,84,68,50,30.22,30.19,30.14,10,10,10,7,1,,0.00,2,,309
2012-8-2,73,64,55,55,53,50,83,69,53,30.19,30.16,30.11,10,10,10,7,2,,0.00,4,,252
2012-8-3,78,66,55,58,55,53,90,65,50,30.13,30.07,29.98,10,10,10,10,3,17,0.00,0,,313
2012-8-4,87,75,64,60,58,54,78,55,40,29.97,29.90,29.82,10,10,10,10,3,16,0.00,0,,324
2012-8-5,91,78,66,60,58,53,76,52,30,29.98,29.90,29.86,10,10,10,7,2,,0.00,1,,308
2012-8-6,82,72,63,60,58,53,78,66,48,30.09,30.06,30.00,10,10,10,10,5,,0.00,2,,193
2012-8-7,70,65,60,59,58,54,93,80,68,30.09,30.07,30.04,10,10,6,9,3,,0.00,7,,202
2012-8-8,73,66,60,55,53,51,78,65,49,30.22,30.16,30.09,10,10,10,9,6,,0.00,8,,194
2012-8-9,73,66,59,56,53,50,87,65,46,30.22,30.16,30.09,10,10,10,10,4,20,0.00,2,,317
2012-8-10,75,66,57,54,53,52,88,62,44,30.14,30.09,30.04,10,10,10,10,2,17,0.00,0,,311
2012-8-11,81,70,59,57,55,52,87,63,39,30.09,30.03,29.88,10,10,10,12,3,18,0.00,0,,309
2012-8-12,84,71,60,58,56,53,80,58,39,30.00,29.96,29.91,10,10,10,9,2,18,0.00,0,,310
2012-8-13,84,72,61,57,52,44,81,53,29,30.03,29.99,29.96,10,10,10,7,2,,0.00,1,,321
2012-8-14,81,70,61,60,56,49,81,61,45,30.00,29.95,29.88,10,10,10,10,3,16,0.00,0,,313
2012-8-15,84,74,63,59,55,50,84,55,32,29.96,29.91,29.84,10,10,10,12,4,18,0.00,0,,332
2012-8-16,91,78,66,57,54,50,61,45,26,29.94,29.90,29.86,10,10,10,8,2,,0.00,0,,311
2012-8-17,91,76,63,58,56,55,81,55,32,29.97,29.93,29.88,10,10,10,6,2,,0.00,0,,321
2012-8-18,72,66,60,59,58,55,90,79,66,29.99,29.95,29.87,10,10,6,12,6,,0.00,5,,182
2012-8-19,73,66,60,59,55,52,90,70,53,30.04,30.01,29.96,10,10,10,9,5,,0.00,6,,196
2012-8-20,77,69,61,56,53,51,80,61,40,30.06,30.01,29.94,10,10,10,7,2,,0.00,4,,283
2012-8-21,73,65,59,54,53,51,81,65,49,30.04,30.00,29.97,10,10,10,10,3,21,0.00,6,,220
2012-8-22,72,65,59,52,50,48,78,62,44,30.12,30.08,30.04,10,10,10,7,3,,0.00,6,,337
2012-8-23,69,62,59,50,49,45,72,62,47,30.12,30.08,30.05,10,10,10,8,3,,0.00,7,,51
2012-8-24,70,60,50,48,45,43,83,58,38,30.22,30.13,30.02,10,10,10,12,4,17,0.00,1,,25
2012-8-25,75,64,54,50,48,46,80,57,37,30.00,29.85,29.74,10,10,10,8,2,,0.00,0,,317
2012-8-26,71,62,55,54,51,48,80,66,53,29.97,29.83,29.75,10,10,10,12,5,18,0.00,4,,183
2012-8-27,75,64,55,53,49,46,84,58,37,30.06,30.03,29.99,10,10,10,10,3,,0.00,3,,209
2012-8-28,75,64,57,52,49,45,75,60,38,30.08,30.04,30.01,10,10,10,10,4,16,0.00,5,,180
2012-8-29,73,65,57,54,51,48,87,67,42,30.15,30.10,30.05,10,10,10,7,5,,0.00,6,,185
2012-8-30,72,65,57,54,51,47,78,65,45,30.06,29.98,29.90,10,10,9,10,2,,0.00,4,,338
2012-8-31,71,62,54,50,46,44,75,57,39,29.99,29.95,29.93,10,10,10,9,2,,0.00,2,,307